TimeEDT,TemperatureF,Dew PointF,Humidity,Sea Level PressureIn,VisibilityMPH,Wind Direction,Wind SpeedMPH,Gust SpeedMPH,PrecipitationIn,Events,Conditions,WindDirDegrees,DateUTC
12:15 AM,69.8,57.2,64,29.68,10.0,SSW,9.2,25.3,N/A,,Overcast,200,2013-11-01 04:15:00
12:35 AM,66.2,59.0,78,29.69,7.0,South,5.8,-,N/A,,Overcast,190,2013-11-01 04:35:00
12:55 AM,66.2,59.0,78,29.68,7.0,SSW,12.7,23.0,N/A,,Overcast,210,2013-11-01 04:55:00
1:15 AM,66.2,59.0,78,29.67,10.0,East,3.5,21.9,N/A,,Overcast,100,2013-11-01 05:15:00
1:35 AM,66.2,59.0,78,29.68,7.0,SW,12.7,23.0,N/A,,Overcast,220,2013-11-01 05:35:00
1:55 AM,64.4,59.0,83,29.67,7.0,SW,5.8,-,N/A,,Overcast,220,2013-11-01 05:55:00
2:15 AM,64.4,60.8,88,29.68,4.0,SE,5.8,20.7,N/A,,Overcast,130,2013-11-01 06:15:00
2:35 AM,64.4,60.8,88,29.67,4.0,West,3.5,-,N/A,,Overcast,270,2013-11-01 06:35:00
2:55 AM,62.6,60.8,94,29.66,3.0,SW,6.9,19.6,N/A,,Overcast,230,2013-11-01 06:55:00
3:15 AM,62.6,60.8,94,29.66,3.0,SW,5.8,-,N/A,,Overcast,230,2013-11-01 07:15:00
3:35 AM,62.6,60.8,94,29.64,3.0,West,5.8,-,N/A,,Overcast,280,2013-11-01 07:35:00
3:55 AM,60.8,59.0,94,29.68,1.0,West,28.8,49.5,N/A,,Overcast,280,2013-11-01 07:55:00
4:15 AM,59.0,55.4,88,29.70,7.0,West,10.4,26.5,N/A,,Overcast,260,2013-11-01 08:15:00
4:35 AM,59.0,55.4,88,29.70,10.0,West,11.5,-,N/A,,Overcast,270,2013-11-01 08:35:00
4:55 AM,59.0,55.4,88,29.70,10.0,West,10.4,16.1,N/A,,Overcast,280,2013-11-01 08:55:00
5:15 AM,59.0,55.4,88,29.71,10.0,West,11.5,16.1,N/A,,Overcast,260,2013-11-01 09:15:00
5:35 AM,60.8,55.4,82,29.72,10.0,West,13.8,19.6,N/A,,Overcast,280,2013-11-01 09:35:00
5:55 AM,60.8,53.6,77,29.73,10.0,West,11.5,23.0,N/A,,Overcast,260,2013-11-01 09:55:00
6:15 AM,60.8,51.8,72,29.74,10.0,West,12.7,19.6,N/A,,Mostly Cloudy,280,2013-11-01 10:15:00
6:35 AM,59.0,51.8,77,29.76,10.0,West,5.8,-,N/A,,Overcast,280,2013-11-01 10:35:00
6:55 AM,59.0,51.8,77,29.76,10.0,West,3.5,-,N/A,,Overcast,260,2013-11-01 10:55:00
7:15 AM,59.0,51.8,77,29.78,10.0,NW,3.5,-,N/A,,Overcast,310,2013-11-01 11:15:00
7:35 AM,59.0,50.0,72,29.78,10.0,West,4.6,-,N/A,,Overcast,270,2013-11-01 11:35:00
7:55 AM,57.2,50.0,77,29.79,10.0,WNW,4.6,-,N/A,,Overcast,300,2013-11-01 11:55:00
8:15 AM,57.2,50.0,77,29.79,10.0,West,6.9,-,N/A,,Overcast,270,2013-11-01 12:15:00
8:35 AM,57.2,51.8,82,29.81,10.0,West,4.6,-,N/A,,Overcast,260,2013-11-01 12:35:00
8:55 AM,55.4,50.0,82,29.81,10.0,WSW,9.2,-,N/A,,Mostly Cloudy,250,2013-11-01 12:55:00
9:15 AM,59.0,50.0,72,29.82,10.0,West,8.1,-,N/A,,Mostly Cloudy,270,2013-11-01 13:15:00
9:35 AM,59.0,50.0,72,29.82,10.0,West,3.5,-,N/A,,Overcast,260,2013-11-01 13:35:00
9:55 AM,59.0,50.0,72,29.82,10.0,West,4.6,-,N/A,,Overcast,270,2013-11-01 13:55:00
10:15 AM,59.0,48.2,67,29.82,10.0,West,8.1,17.3,N/A,,Overcast,260,2013-11-01 14:15:00
10:35 AM,59.0,46.4,63,29.82,10.0,WSW,8.1,-,N/A,,Mostly Cloudy,250,2013-11-01 14:35:00
10:55 AM,59.0,48.2,67,29.81,10.0,WSW,4.6,-,N/A,,Mostly Cloudy,250,2013-11-01 14:55:00
11:15 AM,59.0,48.2,67,29.81,10.0,West,3.5,-,N/A,,Scattered Clouds,260,2013-11-01 15:15:00
11:35 AM,60.8,48.2,63,29.81,10.0,SW,4.6,-,N/A,,Overcast,220,2013-11-01 15:35:00
11:55 AM,62.6,46.4,55,29.80,10.0,SW,4.6,-,N/A,,Mostly Cloudy,220,2013-11-01 15:55:00
12:15 PM,64.4,46.4,52,29.80,10.0,SW,5.8,-,N/A,,Scattered Clouds,230,2013-11-01 16:15:00
12:35 PM,64.4,46.4,52,29.79,10.0,SSW,5.8,-,N/A,,Scattered Clouds,210,2013-11-01 16:35:00
12:55 PM,68.0,46.4,46,29.78,10.0,West,3.5,-,N/A,,Overcast,270,2013-11-01 16:55:00
1:15 PM,68.0,44.6,43,29.77,10.0,South,5.8,-,N/A,,Mostly Cloudy,190,2013-11-01 17:15:00
1:35 PM,68.0,44.6,43,29.76,10.0,North,-9999.0,-,N/A,,Clear,0,2013-11-01 17:35:00
1:55 PM,68.0,44.6,43,29.76,10.0,WSW,9.2,-,N/A,,Clear,250,2013-11-01 17:55:00
2:15 PM,68.0,42.8,40,29.75,10.0,SSW,9.2,-,N/A,,Scattered Clouds,200,2013-11-01 18:15:00
2:35 PM,69.8,44.6,40,29.73,10.0,SW,5.8,-,N/A,,Scattered Clouds,230,2013-11-01 18:35:00
2:55 PM,69.8,41.0,35,29.73,10.0,WSW,9.2,-,N/A,,Scattered Clouds,240,2013-11-01 18:55:00
3:15 PM,69.8,41.0,35,29.72,10.0,West,9.2,16.1,N/A,,Mostly Cloudy,260,2013-11-01 19:15:00
3:35 PM,69.8,41.0,35,29.72,10.0,SW,5.8,-,N/A,,Scattered Clouds,220,2013-11-01 19:35:00
3:55 PM,69.8,39.2,33,29.72,10.0,West,6.9,-,N/A,,Clear,280,2013-11-01 19:55:00
4:15 PM,68.0,37.4,33,29.72,10.0,SW,3.5,-,N/A,,Clear,230,2013-11-01 20:15:00
5:55 PM,64.4,37.4,37,29.73,10.0,WNW,10.4,-,N/A,,Clear,300,2013-11-01 21:55:00
6:15 PM,62.6,37.4,39,29.74,10.0,WNW,10.4,-,N/A,,Clear,290,2013-11-01 22:15:00
6:35 PM,62.6,37.4,39,29.74,10.0,WNW,6.9,-,N/A,,Clear,300,2013-11-01 22:35:00
6:55 PM,60.8,37.4,42,29.75,10.0,NW,4.6,-,N/A,,Clear,320,2013-11-01 22:55:00
7:15 PM,59.0,39.2,48,29.76,10.0,Calm,Calm,-,N/A,,Clear,0,2013-11-01 23:15:00
7:35 PM,59.0,41.0,51,29.77,10.0,Calm,Calm,-,N/A,,Clear,0,2013-11-01 23:35:00
7:55 PM,55.4,41.0,58,29.78,10.0,Calm,Calm,-,N/A,,Clear,0,2013-11-01 23:55:00
8:15 PM,53.6,42.8,67,29.79,10.0,Calm,Calm,-,N/A,,Clear,0,2013-11-02 00:15:00
8:35 PM,53.6,42.8,67,29.79,10.0,Calm,Calm,-,N/A,,Clear,0,2013-11-02 00:35:00
8:55 PM,53.6,41.0,62,29.79,10.0,Calm,Calm,-,N/A,,Clear,0,2013-11-02 00:55:00
9:15 PM,51.8,41.0,67,29.80,10.0,North,-9999.0,-,N/A,,Clear,0,2013-11-02 01:15:00
9:35 PM,51.8,42.8,71,29.80,10.0,Calm,Calm,-,N/A,,Clear,0,2013-11-02 01:35:00
9:55 PM,51.8,42.8,71,29.80,10.0,Calm,Calm,-,N/A,,Clear,0,2013-11-02 01:55:00
10:15 PM,50.0,42.8,76,29.81,10.0,Calm,Calm,-,N/A,,Clear,0,2013-11-02 02:15:00
10:35 PM,50.0,44.6,82,29.81,10.0,Calm,Calm,-,N/A,,Scattered Clouds,0,2013-11-02 02:35:00
10:55 PM,50.0,44.6,82,29.82,10.0,Calm,Calm,-,N/A,,Mostly Cloudy,0,2013-11-02 02:55:00
11:15 PM,48.2,44.6,87,29.82,10.0,Calm,Calm,-,N/A,,Overcast,0,2013-11-02 03:15:00
11:35 PM,48.2,44.6,87,29.82,10.0,Calm,Calm,-,N/A,,Mostly Cloudy,0,2013-11-02 03:35:00
11:55 PM,46.4,44.6,93,29.82,10.0,SSE,3.5,-,N/A,,Mostly Cloudy,150,2013-11-02 03:55:00